Tracking 25710 objects as of 6-Jul-2022
HD Live streaming from Space Station
objects crossing your sky now

FENGYUN 1C DEB

Track FENGYUN 1C DEB now!
10-day predictions


NORAD ID: 41001
Int'l Code: 1999-025EXF
Perigee: 792.3 km
Apogee: 851.4 km
Inclination: 98.9 °
Period: 101.2 minutes
Semi major axis: 7192 km
RCS: Unknown
Launch date: May 10, 1999
Source: People's Republic of China (PRC)
Launch site: Taiyaun Space Center, China (TSC)

Note: This is SATELLITE DEBRIS
aabbcc
Your satellite tracking list
Your tracking list is empty




NASA's NSSDC Master Catalog

Two Line Element Set (TLE):
1 41001U 99025EXF 22179.97585944  .00002469  00000-0  11032-2 0  9993
2 41001  98.9422 224.4866 0041126  72.5239  46.4706 14.23153361430717
Source of the keplerian elements: AFSPC